Wind_Speed
32 32 32 33 33 34 35 35 36 36 35 35 36 38 38 38 38 39 40 40 39 39 40 40 41 41 41 42 42 42 41 38 36 38 39 38 37 38 38 38 37 36 35 35 35 35 35 36 37 37 36 34 32 30 29 28 28 26 25 25 26 27 28 28 28 27 24 23 21 19 18 17 14 11 10 11 11 12 12 12 14 17 20 25 29 29 30
36 36 36 37 37 37 38 38 39 40 39 39 39 40 41 41 41 41 42 42 41 41 41 41 42 42 42 43 43 42 42 39 37 38 39 38 36 37 39 40 39 38 37 36 36 36 36 37 38 39 38 35 34 33 33 32 30 29 28 27 26 27 28 28 29 30 28 26 23 21 20 19 18 15 13 12 11 11 12 12 14 16 17 22 27 28 29
40 40 41 41 42 42 43 43 44 44 45 45 44 44 44 44 44 44 45 46 45 44 44 44 43 44 44 44 44 43 43 41 39 38 38 37 36 38 40 40 41 40 38 37 37 37 38 38 39 40 39 37 37 37 36 34 34 33 32 30 28 28 28 29 30 31 31 29 25 22 21 20 19 18 15 14 13 11 11 12 15 17 18 20 24 27 29
44 45 45 45 46 47 47 47 48 49 49 49 49 49 49 48 48 47 47 48 48 47 48 48 47 46 47 47 46 45 45 43 41 40 38 37 38 40 39 40 41 40 39 38 38 37 38 39 39 40 40 39 39 39 39 38 37 36 35 34 32 30 29 29 30 31 32 32 28 23 22 22 21 20 18 16 15 13 11 12 15 16 18 20 23 26 29
49 49 49 49 50 50 51 51 51 52 52 53 53 53 53 53 53 51 50 50 51 51 51 51 50 50 50 50 49 48 48 46 44 43 41 38 40 42 40 39 41 41 40 40 39 38 38 38 39 40 41 41 41 41 41 41 40 39 39 38 35 33 31 30 30 31 32 33 32 27 24 24 23 22 20 17 16 16 14 13 14 15 17 20 22 25 28
54 54 54 54 54 54 54 54 55 55 55 56 56 56 57 57 57 57 55 54 54 55 55 55 54 53 54 54 53 52 50 48 47 47 45 43 43 44 42 41 41 42 42 42 41 40 39 38 38 40 42 42 41 41 42 43 43 42 41 40 38 36 34 31 31 32 32 33 33 30 27 27 26 24 21 20 18 18 17 15 14 15 17 20 22 24 27
58 59 59 59 59 59 59 59 59 59 59 60 59 59 60 60 61 61 61 59 58 59 59 59 59 58 58 58 57 56 53 52 51 51 50 48 47 46 45 44 43 43 44 44 44 43 41 39 39 41 42 42 41 40 41 42 44 44 43 41 39 39 37 34 32 33 33 32 33 32 30 29 29 26 23 22 21 19 18 17 16 16 18 21 23 25 27
59 60 61 62 63 63 63 63 63 63 63 64 64 63 64 64 64 65 65 64 63 63 62 63 63 63 62 61 61 60 58 57 57 57 55 53 51 50 48 48 47 46 46 46 45 45 44 43 42 42 43 44 44 42 40 40 42 44 44 42 40 39 39 36 35 36 36 34 32 32 31 31 31 30 27 25 25 22 20 18 17 17 19 21 22 25 28
59 60 61 62 64 64 65 65 65 66 66 67 67 67 67 67 68 68 68 68 68 67 66 66 66 66 66 65 64 64 63 62 62 62 60 57 55 54 53 52 51 49 49 49 48 48 48 47 46 46 46 46 46 46 44 41 40 41 42 42 41 41 40 39 39 39 38 35 32 31 32 32 31 31 30 29 29 26 22 19 18 18 19 21 22 25 27
56 56 57 59 60 62 63 64 64 65 65 66 67 68 68 68 68 69 69 70 70 70 70 69 68 68 68 67 67 67 67 66 66 66 64 61 60 59 58 57 55 53 52 52 51 50 51 51 51 50 49 49 48 47 47 45 42 40 40 40 40 42 43 42 41 40 37 34 32 31 32 32 31 32 34 33 32 29 25 22 20 20 20 21 22 24 26
53 53 54 55 56 57 59 60 61 62 63 63 64 65 66 66 67 68 68 69 70 71 71 71 70 70 70 69 68 68 69 69 69 68 67 65 65 63 62 61 60 58 56 56 55 54 54 54 54 53 53 52 50 49 49 48 46 44 42 41 39 40 42 43 41 39 36 34 32 31 31 31 32 34 36 36 35 32 29 26 23 22 21 21 22 24 25
52 51 52 52 53 54 55 56 58 59 60 61 62 63 63 64 65 66 66 67 69 69 69 70 70 71 71 70 70 69 69 70 69 69 69 69 68 66 65 64 63 61 60 59 58 58 57 57 57 57 56 55 53 52 52 51 49 47 45 44 42 39 39 40 40 38 36 35 33 31 29 30 33 36 37 37 36 34 33 30 26 24 23 22 22 23 24
51 51 51 51 52 53 54 56 57 59 60 62 63 64 64 65 66 66 67 67 69 69 68 68 69 69 70 70 71 71 71 71 70 70 70 70 70 68 66 65 65 64 63 62 61 60 59 59 59 59 59 58 57 55 53 52 51 50 49 48 45 41 39 39 40 40 38 36 34 31 30 31 35 37 38 38 37 36 35 34 30 27 25 24 24 24 24
53 52 52 52 53 54 56 58 60 62 63 64 65 66 66 67 67 68 69 70 71 71 70 69 68 68 69 69 70 70 70 70 71 71 71 72 72 69 67 66 66 65 64 63 62 62 61 61 60 60 59 59 59 57 55 54 53 53 52 49 44 41 40 40 42 42 41 38 36 33 31 33 36 39 39 40 40 39 38 36 34 30 27 26 26 25 24
55 54 53 54 55 57 59 60 61 62 63 63 64 65 66 66 67 68 69 70 72 72 73 72 71 70 70 70 70 70 70 70 70 70 71 72 73 72 69 67 67 66 65 63 63 63 63 63 62 61 59 58 58 58 56 55 54 53 51 48 44 42 42 43 45 46 45 42 38 36 33 33 37 41 41 41 42 42 41 39 37 34 31 30 29 28 26
58 56 56 56 58 59 60 60 60 60 60 60 61 61 61 62 62 63 65 66 69 70 71 72 73 73 72 71 71 71 71 71 70 70 71 71 72 72 70 68 68 68 66 64 63 63 63 63 62 62 61 59 58 58 57 57 55 53 52 51 49 47 45 45 47 48 46 43 40 38 36 36 38 42 42 41 42 42 41 40 39 37 36 34 33 32 29
60 59 58 59 60 61 61 60 59 59 58 57 56 55 55 55 56 57 58 60 62 64 66 68 70 72 72 72 72 72 73 73 72 71 71 70 70 70 69 68 67 67 66 65 64 64 63 63 61 61 61 60 59 57 57 58 58 56 55 55 55 53 50 47 46 45 45 43 41 40 40 39 40 41 42 42 42 42 40 39 38 38 39 39 36 34 32
62 61 61 62 62 62 61 60 58 56 54 52 50 49 49 49 49 49 50 52 54 56 57 60 63 66 68 69 70 70 72 73 72 72 71 70 69 68 67 66 66 65 64 64 65 64 64 63 62 60 60 60 59 57 57 58 59 59 59 58 57 55 52 48 46 45 45 45 43 42 42 42 42 42 42 42 42 41 39 38 38 39 41 41 39 37 34
64 64 64 63 62 61 60 58 56 53 50 47 46 45 45 44 44 44 44 45 47 48 48 50 54 57 60 62 64 65 67 69 70 70 70 70 69 68 66 66 66 64 62 62 64 64 63 63 63 61 60 60 59 57 56 58 60 60 60 58 56 54 51 49 48 48 48 47 46 45 43 43 44 42 40 40 41 40 39 39 39 40 41 41 40 39 37
66 65 64 62 61 60 59 56 53 49 46 45 44 43 43 42 41 41 41 41 42 42 41 43 46 49 51 54 57 59 61 63 65 66 67 68 68 68 67 66 66 64 62 61 63 63 61 61 61 61 61 61 59 56 56 58 60 61 60 58 56 53 51 50 51 51 51 49 48 46 44 44 44 43 40 39 40 41 40 40 41 42 42 42 41 40 38
67 65 63 60 59 59 57 54 50 46 44 43 43 43 42 41 40 39 39 39 39 38 37 39 41 43 44 47 50 53 55 58 60 62 65 66 66 66 66 65 65 64 63 62 62 62 60 59 59 60 60 60 58 55 56 59 61 61 60 59 57 55 53 52 52 53 53 51 49 47 45 45 45 44 41 40 41 41 40 41 43 44 43 42 40 40 39
66 63 60 58 58 58 55 52 48 45 44 43 42 41 41 39 38 37 37 37 37 36 35 36 38 39 40 42 44 47 50 52 54 57 60 62 63 64 64 64 64 64 63 62 62 61 60 59 58 58 58 58 56 55 56 59 61 61 61 61 60 58 56 54 54 54 54 53 50 48 47 46 45 44 43 42 42 42 40 39 43 45 43 41 40 40 39
64 60 58 58 58 56 53 49 47 45 44 43 42 40 39 38 37 36 35 35 35 34 34 35 36 37 38 39 40 41 43 45 48 52 56 59 60 62 63 63 62 62 62 62 61 61 60 59 58 57 57 57 56 56 56 59 61 62 63 63 62 60 59 57 56 55 55 54 52 50 48 48 47 45 44 44 44 44 41 39 42 45 44 42 41 41 39
62 59 58 58 57 54 51 48 46 45 44 43 42 40 39 37 36 35 34 34 33 33 33 34 35 35 37 38 39 39 39 41 43 48 52 56 58 60 60 60 60 60 61 61 61 61 61 60 60 59 58 58 58 58 58 60 63 64 65 65 64 63 61 59 58 56 55 55 54 52 50 50 49 47 45 46 47 46 43 40 42 44 44 43 42 41 40
62 60 58 57 55 52 48 46 45 45 44 44 42 41 40 38 36 35 34 33 33 32 32 34 35 35 36 37 38 39 39 40 41 44 48 51 54 56 57 57 58 60 61 61 61 62 62 62 62 61 61 61 62 62 64 65 66 66 67 67 67 66 63 60 58 57 57 57 56 53 52 51 50 48 46 47 48 47 45 42 43 45 44 44 43 42 41
62 60 58 56 53 50 46 44 44 44 44 43 42 41 40 39 37 35 34 33 33 32 32 33 35 35 35 37 38 39 39 40 40 42 45 47 50 52 54 55 58 59 60 61 61 62 63 63 63 63 63 64 65 67 68 69 69 68 69 69 68 67 64 61 58 57 57 58 56 54 53 52 51 49 48 48 49 49 47 45 45 46 45 44 44 44 41
61 59 56 54 51 47 44 43 43 44 44 43 42 42 40 39 37 36 34 33 33 33 33 33 34 35 35 36 38 39 40 40 41 42 44 46 47 48 49 52 55 57 58 60 61 62 63 64 64 64 64 65 66 67 68 69 69 69 69 70 68 66 63 60 58 56 57 57 55 54 54 53 51 50 50 50 50 50 49 47 47 48 46 45 46 44 41
59 57 54 51 48 45 43 42 42 43 44 43 42 42 40 39 37 35 34 34 33 33 33 34 34 35 35 36 38 39 39 40 41 42 44 45 47 48 48 49 51 53 55 57 58 61 62 63 64 65 65 65 66 66 67 68 68 67 68 69 68 64 61 59 58 57 58 57 56 55 54 53 52 52 52 52 52 52 51 49 49 50 49 47 47 45 40
57 55 52 49 45 43 41 41 41 43 43 43 43 41 39 37 36 35 34 34 34 34 34 34 34 34 34 36 37 38 39 40 41 42 43 45 46 48 48 48 49 50 52 53 55 57 59 60 61 62 62 63 63 63 63 64 65 65 67 69 66 62 59 58 58 58 59 58 57 56 55 55 54 54 54 53 53 53 52 52 51 52 51 50 48 44 40
55 52 49 46 42 41 40 40 41 42 42 42 42 41 38 36 35 34 34 34 35 35 35 36 36 35 34 35 36 37 38 39 39 40 42 44 45 47 48 48 49 50 51 52 54 54 55 56 57 57 57 57 57 57 57 59 59 61 64 66 62 57 56 56 57 58 60 59 57 56 56 55 55 54 54 54 53 54 54 53 52 51 49 48 45 42 39
52 50 47 43 40 39 38 39 40 41 42 42 42 40 37 35 34 33 34 35 36 36 37 36 36 35 35 34 35 35 36 36 37 38 39 41 43 45 47 48 49 50 51 52 52 52 53 53 53 53 52 51 51 51 52 53 55 58 61 61 57 52 52 54 55 56 58 59 57 55 54 54 53 53 54 55 55 55 55 53 51 48 45 43 40 39 38
49 47 44 40 37 37 37 38 40 40 41 41 41 39 36 34 32 32 33 35 37 37 37 36 35 34 34 33 33 32 32 32 33 33 35 37 39 42 44 45 47 48 49 50 51 52 52 51 50 50 49 47 47 48 50 51 53 57 58 55 50 49 50 51 52 53 55 57 57 55 53 53 54 54 53 54 55 55 53 48 44 40 39 38 36 35 36
46 44 41 38 35 35 36 38 39 39 39 40 40 38 35 33 32 32 34 36 37 37 37 36 34 33 31 30 28 27 26 26 27 28 29 30 32 35 37 40 42 44 46 47 49 50 50 50 49 48 47 45 46 48 50 52 55 55 52 47 44 45 47 48 49 50 52 53 54 54 54 55 56 55 53 52 51 48 43 39 37 36 37 38 36 34 34
44 41 38 35 34 34 36 37 38 38 38 39 38 36 34 32 32 33 35 36 37 37 37 35 33 30 27 25 23 22 21 20 21 21 21 22 24 26 29 32 34 37 39 41 44 46 47 48 48 47 46 46 48 50 52 53 53 49 44 40 39 41 43 44 45 46 48 49 50 52 53 54 55 54 52 50 48 43 39 40 43 43 42 40 37 34 33
41 38 36 34 33 33 35 37 37 37 38 38 37 35 33 32 32 34 35 37 37 37 35 33 29 26 22 19 17 17 16 15 14 14 14 15 17 18 21 24 27 29 31 33 36 39 42 44 46 47 47 48 50 51 50 49 46 42 39 37 38 39 40 41 41 43 45 46 47 49 50 51 52 52 50 50 50 48 46 47 49 48 45 40 35 32 32
38 36 34 32 32 33 35 35 36 36 37 38 36 34 33 32 32 34 35 37 37 36 33 29 25 21 18 15 15 15 13 10 10 10 10 11 11 12 14 16 18 21 23 26 29 32 36 39 42 44 47 48 48 47 44 41 39 37 36 35 37 38 37 38 39 41 43 44 45 46 47 48 49 50 50 51 51 50 49 50 50 48 45 40 35 33 34
36 34 32 32 32 33 34 34 35 36 37 37 36 34 32 32 32 34 35 36 36 34 30 25 21 19 16 14 14 13 10 8 7 7 8 8 8 9 10 10 11 13 16 19 21 25 28 31 35 40 43 44 42 40 37 36 35 35 35 35 36 36 36 37 38 40 41 42 43 44 45 46 47 49 50 51 51 50 49 50 50 48 45 41 38 37 36
34 32 31 31 32 32 33 33 34 35 37 37 36 33 32 31 32 33 34 35 35 33 28 22 19 16 14 13 13 11 9 7 6 6 6 6 7 7 7 6 5 6 9 12 15 18 22 25 29 33 36 37 36 35 34 34 34 34 34 35 35 35 36 37 38 38 39 40 41 42 43 44 45 47 49 50 50 49 49 49 49 47 43 39 37 37 36
33 31 31 31 32 32 32 33 34 35 37 37 35 33 31 31 32 33 34 34 34 31 25 20 17 15 13 13 12 10 8 6 6 5 4 4 5 5 4 3 2 1 3 6 9 13 16 20 24 27 29 31 32 32 31 31 30 30 30 31 32 32 33 34 35 35 36 38 38 39 40 40 42 45 46 47 47 47 47 47 46 43 38 35 35 35 36
32 31 31 31 31 32 32 32 33 35 36 37 35 32 31 31 31 32 33 33 32 29 23 19 16 13 12 11 11 9 7 6 6 4 3 2 3 3 1 1 3 3 4 5 7 10 12 16 20 24 26 28 29 28 27 27 27 27 27 28 28 29 29 30 31 32 34 35 35 35 36 37 39 42 43 43 44 45 45 44 43 41 36 35 35 35 36
31 31 31 31 31 31 31 32 33 35 36 36 34 32 31 31 31 31 32 32 31 27 22 18 15 13 11 11 10 9 7 6 5 5 4 4 4 4 4 5 6 6 7 8 9 11 13 14 17 21 23 25 25 25 25 25 25 25 26 26 27 27 28 28 29 31 32 32 32 33 34 35 36 38 39 41 42 44 44 43 43 41 38 37 38 36 37
30 31 31 31 31 30 31 32 33 34 36 35 33 31 30 30 30 31 31 30 29 25 20 16 14 12 11 10 9 8 6 6 5 6 7 7 7 7 7 7 8 9 9 10 12 14 15 15 16 18 20 22 23 23 23 24 24 24 25 25 27 28 30 31 31 31 31 32 33 34 34 34 34 34 36 38 40 41 41 40 41 40 38 37 39 38 39
30 31 31 30 30 30 31 31 33 34 35 34 32 30 29 29 30 30 29 29 27 24 19 15 13 12 11 10 9 7 6 6 7 8 9 10 10 9 8 9 10 11 11 12 13 15 16 16 16 17 17 19 20 22 22 21 21 21 22 22 23 25 28 31 33 33 33 33 34 34 33 32 31 31 31 32 34 34 33 33 34 35 36 37 40 42 43
30 30 30 30 30 30 31 31 32 34 33 32 30 29 28 28 29 29 28 27 26 23 18 15 13 13 12 11 10 8 7 7 9 10 11 12 12 10 10 10 11 12 12 13 14 15 16 17 17 17 17 16 18 19 20 19 18 18 18 18 19 19 21 23 26 29 31 32 32 32 31 30 29 29 28 28 29 29 29 29 29 31 33 37 40 44 46
29 29 29 29 29 30 30 31 32 32 31 30 28 27 27 27 28 28 26 25 25 22 17 14 13 13 13 12 11 9 8 8 10 12 13 14 13 12 10 11 11 12 12 12 14 14 15 15 15 16 16 16 16 17 18 18 19 18 17 16 17 17 18 19 20 23 26 28 30 31 31 31 30 30 29 28 27 26 27 28 29 31 34 38 42 44 46
28 28 28 28 28 29 29 31 31 31 29 28 27 26 26 27 27 26 25 24 23 21 17 14 13 13 14 13 12 11 10 10 12 14 15 16 15 13 12 11 11 11 11 12 12 13 13 13 13 13 14 14 15 15 15 15 16 16 16 17 18 19 19 20 21 22 24 26 28 30 31 31 31 30 29 28 28 28 28 29 29 30 34 40 44 45 45
27 27 27 27 28 28 29 31 30 29 28 27 25 25 25 26 26 25 24 23 22 19 16 14 13 14 14 14 14 13 12 11 12 15 16 17 16 15 14 12 11 11 11 12 12 13 13 13 13 13 14 14 15 15 14 13 13 13 13 15 18 21 22 22 23 24 25 27 28 29 29 30 30 29 28 28 28 29 30 30 30 30 34 39 44 45 44
27 27 27 27 27 28 29 30 29 28 27 25 24 24 25 25 25 24 23 22 21 19 16 14 13 13 15 15 15 15 13 12 13 15 17 18 18 17 16 14 13 12 12 13 13 14 15 15 14 14 14 15 16 16 15 13 12 11 11 12 15 19 22 23 24 25 26 27 28 29 29 29 29 28 27 28 29 30 30 30 30 31 34 37 41 43 43
26 26 27 27 28 28 29 29 28 27 26 25 23 23 24 25 24 23 22 21 20 18 15 14 14 13 15 16 16 15 15 14 14 15 17 19 19 18 18 17 16 14 14 14 14 15 16 16 16 15 15 15 15 16 15 14 13 12 10 9 11 15 18 20 21 22 23 24 25 26 27 28 29 28 27 28 30 31 31 31 32 33 34 36 39 42 43
26 27 27 28 28 28 29 29 28 27 26 24 23 23 23 24 23 22 21 21 20 17 15 14 14 14 14 16 17 16 16 15 15 15 16 18 20 20 19 19 18 17 16 15 15 16 18 18 18 18 17 17 17 17 16 16 16 16 13 9 10 14 17 18 18 18 18 18 18 19 20 21 24 25 27 28 30 32 32 33 34 35 35 36 38 40 42
27 28 28 29 29 28 28 28 27 27 25 24 23 23 23 23 23 22 21 20 19 17 14 14 14 15 15 17 18 18 17 16 16 16 16 18 20 21 21 20 19 18 18 17 17 18 20 20 20 20 20 20 20 20 17 15 16 17 17 15 14 16 17 17 18 19 19 18 18 18 18 18 19 21 23 26 28 30 32 34 35 36 37 38 39 40 41
28 29 30 30 29 28 28 27 27 26 25 24 23 22 22 23 23 22 20 19 19 17 14 14 14 15 16 17 18 19 19 18 18 17 18 19 20 22 22 21 20 19 18 18 19 20 21 22 22 22 22 22 22 19 15 12 12 14 15 16 16 16 16 16 17 19 20 21 21 21 21 21 21 22 23 24 26 28 30 31 33 35 36 38 39 40 41
Wind_Direction
288 287 286 285 285 284 284 284 284 284 283 282 281 281 280 279 278 277 275 274 273 272 272 271 270 270 269 269 269 270 270 271 271 270 270 271 273 274 274 274 274 273 273 273 273 273 273 273 274 275 275 276 278 278 276 277 278 281 283 286 290 293 295 297 299 302 305 309 316 320 320 322 321 318 317 311 304 302 303 299 285 267 255 252 251 251 252
287 287 286 285 284 283 283 283 283 283 283 282 281 280 279 278 277 277 277 275 274 273 272 271 270 270 269 268 268 269 269 270 270 269 270 272 274 273 272 272 273 273 274 274 274 272 271 271 271 272 273 274 275 274 273 274 275 275 276 279 282 286 289 292 293 295 297 300 307 311 311 312 315 317 322 323 313 303 302 301 288 275 264 254 250 250 250
287 286 285 284 283 282 282 282 282 282 282 281 280 279 277 276 275 274 274 274 274 273 272 271 270 270 269 268 268 269 269 269 269 269 270 272 273 272 271 272 273 273 274 274 273 272 271 270 270 270 272 272 272 272 271 271 272 272 272 273 274 277 282 285 285 288 291 293 298 304 302 301 305 308 313 318 318 308 300 297 289 280 271 260 253 250 249
285 284 283 282 282 281 280 280 280 280 279 279 279 278 276 274 272 271 270 272 272 271 271 270 269 269 269 269 268 268 268 268 268 268 268 270 270 270 270 271 272 272 273 272 271 270 270 270 269 269 270 270 269 269 269 269 269 270 270 270 270 271 274 277 279 281 284 287 292 296 295 293 295 299 304 309 312 311 301 290 291 291 282 267 257 252 250
282 282 281 280 279 279 278 278 277 277 277 277 276 276 275 274 272 270 268 267 268 268 268 268 268 267 267 267 267 267 267 267 268 268 267 266 266 267 268 268 269 270 270 269 269 269 269 269 268 267 267 268 268 268 268 268 267 267 268 269 268 268 269 271 274 276 277 282 287 290 290 290 289 292 296 299 303 308 305 295 291 295 288 275 263 255 250
282 280 279 278 277 277 276 276 275 275 275 274 274 273 273 272 271 270 268 266 265 264 265 265 266 265 265 265 265 265 265 266 267 266 265 263 263 264 265 265 266 267 268 269 269 269 268 268 268 268 268 269 269 269 268 267 267 266 268 269 267 265 265 266 268 270 272 276 281 285 287 287 288 288 289 290 293 298 303 304 299 294 290 280 270 261 254
282 281 279 277 276 275 275 274 274 274 273 273 272 272 271 271 270 269 268 266 264 262 262 262 262 262 263 263 264 264 264 264 264 264 263 262 261 262 263 263 263 264 265 267 268 268 268 267 266 266 267 269 269 270 271 270 269 268 267 269 267 263 262 263 263 264 268 271 275 281 283 284 286 287 285 283 284 288 294 300 305 303 298 290 280 270 263
284 281 279 277 276 275 274 273 273 273 272 272 272 271 270 270 269 268 267 266 264 262 260 260 259 259 259 260 262 263 263 262 262 262 262 261 261 262 262 262 262 263 263 264 266 267 268 267 265 265 265 267 268 270 272 272 272 272 270 268 266 262 260 260 259 260 263 265 269 275 279 280 283 286 283 279 278 281 283 288 297 303 301 298 291 279 273
287 284 281 278 276 275 274 273 273 273 272 272 272 271 270 269 268 268 267 265 264 262 260 259 258 258 258 258 259 260 260 260 260 261 261 261 261 262 262 262 262 262 262 263 263 265 266 266 266 265 265 265 266 268 270 271 273 276 275 271 266 261 260 260 260 259 261 263 267 272 275 278 280 281 279 276 276 279 279 279 283 290 295 298 294 286 281
293 289 286 283 280 278 277 276 275 274 273 273 272 271 270 269 268 267 266 265 264 262 260 258 257 257 258 257 257 257 258 258 258 259 260 260 260 260 260 261 261 260 261 262 262 262 263 264 265 265 264 264 264 265 267 269 271 275 278 277 271 264 261 261 261 260 260 263 268 271 274 277 277 274 273 274 275 276 278 277 276 278 285 290 292 290 287
298 294 291 287 285 282 280 279 277 276 275 274 273 272 271 270 269 268 266 265 263 262 261 259 258 257 257 257 257 257 257 257 258 258 258 258 258 258 258 259 260 260 260 261 262 262 262 263 264 263 263 262 262 262 264 268 271 272 274 277 276 270 264 261 261 260 260 265 269 271 274 276 272 268 270 272 273 273 275 276 275 272 275 282 287 290 290
301 297 294 290 287 285 283 281 279 277 276 274 272 271 270 270 269 268 266 265 264 262 260 259 258 257 256 255 256 256 256 257 257 258 258 258 257 257 257 258 258 259 259 260 261 262 262 263 264 264 263 261 261 262 263 266 269 270 271 273 276 275 268 263 261 262 264 267 269 270 272 270 265 265 267 268 269 271 273 275 274 272 271 274 279 284 288
303 300 297 294 291 289 287 285 283 280 278 276 274 272 270 268 267 267 265 265 264 262 260 259 258 257 256 255 254 254 255 255 256 257 258 258 258 257 257 258 258 257 257 258 258 259 260 262 263 263 263 263 262 262 263 264 265 267 269 272 275 277 274 267 264 265 266 267 268 268 268 264 260 261 264 264 264 267 270 273 274 273 270 271 273 277 282
307 303 300 298 296 294 291 289 287 284 282 280 278 276 273 271 269 267 265 264 263 262 261 259 257 256 255 254 254 253 253 254 254 255 256 257 257 256 256 257 257 257 256 256 257 257 257 258 259 261 263 263 263 262 261 261 263 266 269 272 273 274 272 267 263 263 265 267 267 267 264 260 258 258 260 260 261 264 267 270 272 273 273 271 271 271 276
310 307 304 302 300 298 296 293 291 289 286 284 282 279 277 275 272 270 267 265 264 262 261 260 258 256 255 254 254 253 252 252 253 253 254 255 255 255 255 255 256 257 256 256 256 256 256 256 257 258 259 261 262 261 259 259 261 264 266 267 266 266 268 267 263 261 263 265 266 266 263 259 256 256 258 259 260 262 265 268 270 273 273 271 270 270 271
312 310 307 305 304 303 301 299 296 294 291 288 285 283 280 277 275 272 269 267 265 263 261 260 259 258 256 254 253 252 252 251 251 252 253 254 255 255 254 254 255 256 256 255 255 254 255 255 256 256 256 258 259 259 257 257 258 260 261 262 263 264 266 268 264 260 259 261 262 263 262 259 256 256 258 258 258 259 262 266 269 272 272 270 271 272 272
314 312 310 309 308 306 304 302 300 298 295 292 289 286 283 280 277 274 271 269 266 264 263 261 260 259 257 255 253 251 251 251 250 251 252 253 254 255 255 254 254 254 255 255 254 254 254 254 254 254 254 255 256 256 256 255 256 257 258 259 262 264 266 267 264 259 257 258 259 260 260 259 258 256 257 257 257 258 261 264 267 268 269 269 271 272 272
315 313 312 311 309 308 306 305 304 302 299 295 292 289 286 283 280 277 275 272 269 266 265 263 262 260 258 256 254 252 251 251 250 250 251 252 252 254 254 254 253 252 253 253 253 253 254 254 253 252 252 252 253 254 254 254 254 255 256 257 260 262 264 265 263 260 258 258 259 258 258 259 259 257 257 258 259 259 260 262 263 264 266 269 271 271 271
316 315 313 312 310 309 309 308 307 305 301 298 295 292 288 285 282 280 277 275 273 270 268 267 265 262 260 258 256 253 251 251 250 250 250 250 251 251 252 253 252 252 252 252 252 252 252 252 252 251 250 249 249 250 251 252 252 253 255 256 257 259 261 261 261 259 258 258 258 258 258 258 259 258 257 258 258 259 260 261 261 261 264 267 270 270 270
316 315 313 311 311 311 311 311 309 306 303 300 298 294 291 288 285 282 280 278 276 275 273 271 269 266 263 260 258 255 252 250 249 249 249 248 249 249 249 250 251 250 250 250 251 251 250 250 251 250 248 247 246 246 248 249 250 251 252 253 254 255 258 260 260 259 258 257 257 258 258 257 257 257 257 257 257 258 260 262 261 261 264 268 268 269 269
315 313 312 312 313 313 313 313 310 307 304 302 300 298 295 291 288 285 282 280 278 277 276 274 272 269 266 263 260 256 253 250 248 247 247 247 247 247 247 248 248 249 248 248 249 250 250 249 248 248 247 246 244 243 244 247 248 248 250 251 252 254 257 259 259 258 257 256 257 257 257 255 256 257 258 258 259 261 262 263 264 264 265 267 266 266 268
313 312 312 314 315 315 314 313 310 308 307 306 304 301 298 295 292 288 285 282 280 278 276 274 273 271 269 266 263 259 255 252 249 248 247 247 246 246 246 246 246 247 247 247 247 248 249 248 247 246 246 246 244 242 243 245 246 246 247 249 250 253 256 258 259 256 254 254 255 256 255 255 255 256 258 259 260 262 262 263 264 264 264 263 262 265 268
313 313 315 316 317 316 314 313 310 309 309 309 308 305 302 299 296 292 288 285 282 280 276 273 272 271 270 268 266 263 259 255 251 249 247 246 245 245 245 245 245 245 246 246 246 247 247 247 246 244 244 244 244 243 244 245 245 245 245 247 250 252 255 258 259 256 251 250 252 253 253 254 254 254 255 256 258 260 260 259 260 262 262 262 263 265 267
314 315 316 317 317 315 314 311 310 310 312 312 311 308 305 302 299 296 293 289 285 282 278 274 271 270 269 268 267 265 261 257 252 249 248 247 246 245 245 246 245 245 245 245 245 245 245 245 245 244 242 242 243 244 244 244 244 245 246 247 250 253 256 258 259 254 248 246 247 249 250 251 251 251 252 254 255 257 257 257 257 259 262 264 264 265 266
315 316 316 317 316 314 312 310 309 311 313 313 312 310 307 304 301 298 296 293 289 286 281 277 273 270 268 267 266 264 261 259 255 252 250 248 247 246 246 245 245 244 244 244 244 244 244 244 244 243 242 241 241 241 242 242 243 245 247 249 251 253 256 257 256 251 246 243 243 245 247 247 248 249 251 253 254 256 256 256 257 259 261 263 264 264 265
315 315 316 316 315 313 310 308 309 311 313 313 312 310 308 306 303 300 298 295 292 289 285 281 277 273 269 267 265 263 261 259 257 256 253 251 249 247 246 245 244 244 244 244 244 244 244 244 244 243 242 241 241 241 242 243 244 246 248 250 251 253 255 254 252 249 246 242 241 242 245 246 247 249 252 252 253 255 256 256 258 259 260 261 262 263 264
314 314 315 315 314 311 308 307 308 311 313 313 312 311 309 307 304 302 300 297 294 292 288 284 281 278 274 270 267 264 262 259 257 256 255 254 252 249 247 246 245 245 244 243 243 243 243 243 244 243 243 242 243 243 244 245 247 248 249 251 252 252 253 252 250 247 245 243 241 240 242 245 246 248 251 253 253 254 255 256 258 260 261 261 262 263 264
313 313 314 314 312 309 306 306 308 311 312 313 312 311 310 307 305 303 301 299 297 294 291 288 284 281 278 275 271 268 265 261 258 255 254 254 253 252 249 247 246 245 245 244 243 243 243 243 243 243 243 243 243 244 245 246 247 249 250 251 251 250 249 248 246 244 243 242 240 240 241 243 245 247 249 251 252 253 254 255 257 260 261 261 262 264 265
312 312 313 312 310 307 305 306 309 311 312 312 312 311 310 308 306 304 302 300 299 297 295 292 289 285 282 278 275 272 268 264 261 258 256 254 252 252 250 248 247 246 245 244 243 242 242 242 242 242 243 243 243 243 244 245 247 248 248 249 249 247 246 245 243 241 240 241 241 241 241 242 244 247 248 250 251 252 253 256 259 261 261 260 261 263 263
311 311 311 311 308 305 304 306 309 310 311 312 312 312 311 309 307 306 304 302 301 300 298 296 294 291 287 282 278 274 270 267 263 260 258 255 254 252 251 249 248 246 245 244 243 242 241 241 241 241 241 241 242 242 243 243 244 245 246 247 247 245 244 243 241 239 239 239 239 240 241 241 243 246 250 251 252 252 254 258 260 260 259 259 259 259 258
310 309 310 309 306 304 304 306 309 310 311 312 313 313 312 310 309 307 306 304 303 302 301 300 298 295 291 287 282 277 273 269 265 261 258 256 254 253 251 250 248 247 245 244 244 242 241 241 240 240 239 239 240 240 240 240 241 242 242 244 244 243 242 241 240 239 238 238 238 239 240 241 242 244 247 250 252 254 257 259 260 259 257 255 254 254 256
308 308 308 307 304 302 303 306 308 310 312 313 313 313 312 310 309 308 307 306 305 305 304 302 301 298 294 290 285 280 276 271 267 262 259 256 255 254 252 251 250 248 246 245 243 242 241 240 239 239 238 237 237 237 237 237 238 238 240 241 242 241 240 240 239 239 238 237 237 238 239 241 242 243 245 249 253 256 258 258 257 253 249 247 249 253 257
306 306 306 304 302 301 303 305 308 311 313 314 314 313 312 311 310 309 308 308 308 308 307 306 304 300 296 291 288 283 278 273 268 264 261 259 257 256 255 253 251 250 248 246 244 242 240 239 238 237 235 234 234 234 234 234 235 236 238 240 240 239 238 238 238 238 238 238 237 238 240 242 244 245 245 246 249 252 251 247 242 238 238 243 249 253 256
304 304 303 301 299 299 302 305 308 312 314 315 314 313 312 311 310 309 310 310 311 311 310 309 306 301 296 293 291 285 280 274 270 267 265 263 261 260 258 256 253 250 248 246 243 241 239 236 234 233 231 231 231 231 232 233 235 237 238 239 238 237 237 237 236 236 237 237 237 238 239 241 243 245 244 242 243 241 235 233 236 240 242 246 249 248 250
302 302 300 298 297 298 301 304 308 312 315 315 314 313 312 311 310 310 311 312 313 314 313 311 306 300 296 294 290 286 282 278 275 272 269 267 266 265 262 258 255 251 247 244 241 239 236 234 231 229 227 227 228 230 231 233 236 238 238 237 237 236 236 236 236 236 237 237 237 237 237 237 239 241 241 240 239 237 234 235 241 246 248 247 245 244 245
300 299 297 295 294 296 300 304 309 313 315 316 315 313 312 311 311 311 312 313 315 316 316 311 303 297 294 290 285 282 282 279 276 276 275 274 276 276 272 266 258 250 244 240 237 235 233 230 228 225 224 225 227 229 231 233 235 236 235 234 234 235 235 235 235 235 236 236 236 236 235 234 234 235 237 237 237 236 235 237 241 245 245 243 243 243 241
297 296 294 292 293 296 299 304 309 313 315 316 316 314 312 311 311 311 313 315 317 318 316 310 300 293 290 287 282 280 277 271 271 277 283 287 294 297 292 282 266 252 242 234 230 229 227 225 224 223 222 223 224 226 228 229 230 229 229 229 229 230 230 230 231 232 232 233 234 233 233 233 232 232 232 233 234 234 232 233 237 240 240 239 238 237 234
295 293 291 291 292 295 299 304 309 313 315 316 316 314 312 311 310 311 313 316 318 319 315 306 296 290 286 285 285 281 273 263 263 271 282 296 310 313 309 302 287 259 241 228 222 221 219 216 216 217 218 218 218 220 221 223 223 223 224 224 226 227 226 226 227 227 228 229 230 230 230 231 231 231 230 230 231 230 229 229 232 235 235 233 230 228 225
292 290 289 289 291 294 299 305 309 312 314 316 315 314 312 311 311 312 314 316 318 318 313 303 293 286 282 282 285 284 274 261 253 253 265 288 299 303 308 323 343 275 221 210 207 208 208 207 206 206 207 209 211 213 216 217 219 220 221 222 223 224 225 226 226 225 225 225 226 226 227 227 228 230 230 229 227 225 223 223 224 224 224 224 222 221 220
290 288 287 288 290 294 300 305 308 311 313 314 315 313 312 311 312 313 314 316 318 317 311 300 290 282 276 279 283 283 277 264 247 230 219 234 254 253 223 116 100 106 126 151 168 176 186 193 194 194 195 198 201 206 209 212 213 214 215 216 218 220 221 223 222 221 221 222 223 224 227 227 227 229 228 226 222 219 216 215 213 212 213 215 216 219 217
287 286 285 286 289 294 300 304 307 309 312 313 313 312 312 312 312 313 313 315 318 317 309 298 286 275 270 273 278 279 273 258 234 203 180 183 204 201 171 142 125 121 125 135 146 152 160 171 181 185 188 190 194 199 203 206 208 211 212 213 215 216 217 219 219 218 218 219 220 224 228 229 227 226 224 221 217 214 210 207 206 206 209 211 212 216 216
285 284 283 285 289 294 299 303 306 308 310 311 312 312 312 312 312 312 313 316 318 315 307 295 282 269 262 265 271 271 262 241 213 184 167 167 173 171 158 143 135 136 140 143 146 149 153 159 168 176 183 188 192 197 202 206 209 211 214 215 217 217 217 218 218 218 219 220 222 226 230 228 224 220 218 216 214 210 208 208 208 210 212 212 211 213 215
282 281 282 284 289 294 298 303 305 307 309 310 310 310 311 312 312 312 313 316 317 314 306 293 278 263 255 256 259 259 248 226 200 175 163 160 157 153 149 143 139 141 146 149 150 152 153 155 161 169 178 187 193 195 196 198 199 201 202 203 207 211 213 215 216 218 220 223 225 227 226 222 216 212 209 208 207 206 208 211 214 216 218 218 216 216 215
279 280 281 285 289 294 298 302 304 306 308 309 308 308 310 311 312 312 313 316 317 312 304 291 274 256 247 247 249 247 236 218 197 177 164 158 152 148 147 144 140 140 145 147 147 147 147 149 154 160 165 173 181 184 183 182 184 187 190 191 191 194 200 205 209 213 217 219 220 219 215 211 208 206 206 207 208 210 212 216 220 222 222 221 218 215 211
278 279 282 285 289 294 298 301 303 305 307 307 306 307 308 311 312 312 313 316 316 310 302 290 271 252 242 241 242 238 227 212 199 184 171 162 157 154 152 150 146 146 148 149 147 144 144 147 153 157 160 168 176 179 180 182 183 185 189 194 194 191 192 195 198 203 207 209 209 208 208 207 207 208 210 212 213 215 217 221 225 227 223 217 211 207 205
277 280 283 286 289 293 297 300 302 305 306 305 304 304 307 310 312 312 313 316 316 309 299 287 269 249 238 235 235 232 223 211 200 190 178 169 166 164 162 159 158 158 159 159 156 152 152 157 164 168 172 179 184 186 191 196 194 189 191 199 203 201 198 198 200 202 204 206 208 208 209 210 211 213 215 215 214 214 217 221 225 224 217 209 205 204 206
277 280 283 286 289 293 296 299 301 304 305 303 301 302 305 309 312 313 313 316 315 307 295 283 267 247 234 231 232 231 223 211 202 195 186 177 173 172 171 169 170 173 172 168 164 161 163 168 174 178 183 187 189 190 193 198 200 196 196 204 210 210 208 206 206 208 210 211 212 213 214 216 218 219 220 219 215 213 215 217 218 217 212 208 207 209 213
277 280 283 286 289 293 295 298 300 302 302 300 299 300 303 309 312 313 313 315 314 305 291 278 265 247 232 227 229 230 225 214 206 200 192 184 179 178 178 177 179 183 182 175 169 168 169 172 176 183 189 192 192 188 183 183 189 196 198 203 210 215 214 213 213 214 216 218 219 220 221 222 223 224 224 220 215 213 214 216 216 215 213 212 212 214 217
277 280 283 286 289 292 294 296 298 300 300 298 296 297 302 308 312 312 311 313 313 305 289 275 263 247 231 225 226 228 226 219 211 203 196 190 186 184 183 182 183 187 188 183 177 175 175 175 178 184 190 194 195 191 183 177 177 179 181 189 206 213 212 210 211 213 216 219 220 222 222 223 223 223 221 217 213 212 213 215 216 216 216 216 216 216 218
278 281 283 285 288 291 293 294 295 297 298 296 294 294 300 307 311 311 310 313 313 307 290 273 262 247 230 221 221 224 224 220 214 206 198 193 190 188 187 187 187 188 188 187 186 183 182 183 184 186 188 192 196 196 192 187 181 173 168 177 199 207 204 202 203 204 206 208 212 215 217 217 217 216 216 215 213 213 214 215 216 217 219 219 220 220 221
279 281 283 286 288 290 290 291 293 295 296 293 290 292 298 306 310 309 310 312 314 307 291 272 259 247 232 221 217 218 219 218 214 207 200 195 192 191 190 190 189 189 189 191 193 192 192 193 193 191 191 195 200 202 201 197 188 177 175 182 194 198 198 200 203 204 204 206 209 212 215 216 216 216 216 215 215 215 216 218 219 221 222 224 225 227 228
280 281 283 286 287 287 287 288 291 293 293 290 288 291 297 304 308 308 309 312 313 307 292 273 259 246 234 223 216 214 214 214 212 207 201 197 194 193 192 191 191 191 193 196 198 199 200 201 201 200 200 204 210 215 218 212 194 181 181 190 196 198 199 201 204 207 209 210 211 212 214 216 217 218 219 220 220 221 222 223 225 226 227 228 229 231 233
Height
10839 10838 10837 10836 10835 10833 10832 10831 10830 10829 10830 10829 10828 10827 10826 10826 10826 10825 10824 10823 10823 10823 10822 10821 10821 10821 10820 10819 10818 10818 10818 10820 10822 10821 10820 10820 10821 10821 10821 10820 10821 10821 10822 10822 10821 10821 10820 10819 10818 10817 10817 10819 10820 10820 10819 10819 10819 10819 10819 10819 10820 10819 10819 10819 10818 10819 10820 10820 10820 10821 10820 10820 10819 10818 10818 10817 10816 10815 10815 10815 10814 10814 10814 10814 10815 10816 10817
10834 10833 10832 10831 10829 10828 10827 10825 10824 10823 10823 10822 10822 10821 10820 10820 10820 10819 10817 10817 10818 10817 10816 10815 10814 10814 10814 10812 10812 10812 10812 10814 10816 10816 10815 10816 10817 10817 10815 10815 10815 10816 10817 10818 10817 10817 10816 10815 10814 10813 10813 10815 10816 10815 10815 10815 10815 10816 10815 10816 10817 10817 10816 10816 10816 10816 10817 10817 10818 10819 10818 10818 10817 10817 10816 10815 10814 10814 10813 10812 10811 10810 10811 10811 10811 10813 10813
10828 10827 10826 10825 10823 10822 10821 10819 10817 10816 10815 10814 10814 10814 10813 10813 10813 10813 10811 10810 10811 10811 10809 10809 10808 10807 10806 10806 10806 10806 10806 10807 10809 10810 10810 10811 10812 10811 10810 10809 10809 10810 10812 10812 10812 10812 10811 10811 10810 10809 10809 10810 10811 10810 10811 10811 10811 10811 10811 10812 10813 10813 10813 10814 10814 10813 10813 10814 10816 10817 10816 10816 10815 10815 10814 10814 10813 10812 10811 10810 10809 10808 10808 10808 10808 10808 10809
10822 10821 10819 10818 10816 10815 10814 10813 10811 10809 10807 10806 10806 10805 10805 10805 10805 10806 10805 10803 10803 10803 10801 10801 10802 10801 10799 10799 10799 10799 10799 10800 10802 10804 10805 10807 10805 10804 10804 10805 10803 10804 10806 10806 10806 10807 10806 10806 10806 10805 10804 10805 10806 10805 10806 10806 10806 10807 10807 10807 10809 10809 10810 10810 10811 10811 10810 10811 10812 10814 10814 10814 10813 10813 10812 10812 10811 10811 10810 10809 10807 10806 10806 10805 10805 10805 10805
10814 10813 10812 10810 10809 10807 10806 10805 10803 10801 10799 10798 10798 10797 10795 10795 10795 10796 10798 10797 10795 10795 10793 10793 10794 10793 10792 10791 10791 10792 10792 10793 10795 10796 10798 10801 10799 10797 10799 10800 10798 10798 10799 10799 10800 10801 10801 10801 10801 10800 10800 10800 10801 10800 10800 10801 10802 10802 10802 10803 10804 10805 10805 10806 10807 10807 10807 10807 10808 10810 10811 10811 10811 10811 10810 10810 10809 10808 10808 10807 10806 10804 10803 10802 10802 10802 10802
10806 10804 10803 10802 10800 10799 10797 10796 10795 10793 10791 10789 10789 10788 10786 10786 10785 10785 10787 10789 10787 10786 10785 10785 10785 10785 10784 10783 10783 10784 10786 10787 10788 10788 10789 10792 10792 10790 10792 10793 10793 10793 10792 10792 10794 10795 10796 10796 10796 10795 10794 10795 10796 10796 10795 10795 10796 10797 10798 10798 10800 10801 10801 10802 10803 10803 10804 10804 10804 10805 10807 10807 10807 10808 10808 10807 10807 10806 10805 10804 10804 10802 10801 10799 10798 10798 10798
10797 10795 10794 10792 10791 10789 10788 10787 10785 10783 10781 10780 10779 10778 10776 10776 10775 10774 10775 10778 10778 10777 10776 10776 10775 10775 10775 10774 10774 10776 10779 10780 10780 10779 10780 10783 10784 10785 10786 10787 10787 10788 10787 10786 10787 10788 10790 10791 10791 10790 10789 10788 10789 10790 10791 10791 10791 10792 10793 10794 10795 10796 10797 10798 10799 10798 10799 10801 10801 10801 10803 10803 10804 10804 10805 10805 10804 10804 10803 10802 10801 10800 10798 10797 10796 10795 10794
10788 10785 10783 10782 10780 10779 10778 10776 10775 10773 10771 10769 10768 10768 10766 10765 10764 10764 10763 10765 10766 10767 10767 10766 10765 10765 10766 10766 10766 10767 10770 10771 10770 10769 10771 10774 10776 10778 10779 10780 10780 10781 10781 10781 10781 10781 10782 10784 10785 10785 10784 10783 10782 10783 10785 10786 10786 10786 10788 10789 10790 10791 10792 10793 10794 10794 10795 10797 10798 10798 10798 10799 10800 10800 10802 10802 10801 10801 10801 10800 10799 10798 10796 10794 10793 10792 10791
10777 10774 10772 10770 10769 10767 10766 10765 10764 10762 10760 10758 10756 10755 10755 10754 10753 10752 10752 10752 10752 10754 10755 10756 10755 10754 10755 10757 10757 10757 10759 10760 10760 10759 10761 10766 10768 10770 10771 10771 10773 10774 10774 10774 10775 10775 10774 10775 10777 10779 10779 10779 10777 10776 10778 10781 10781 10781 10782 10784 10786 10786 10787 10788 10789 10789 10791 10792 10794 10795 10795 10796 10797 10797 10797 10797 10797 10797 10797 10797 10797 10796 10794 10792 10791 10789 10788
10766 10763 10761 10759 10757 10756 10755 10754 10752 10751 10749 10747 10745 10743 10742 10742 10740 10740 10740 10739 10738 10740 10742 10744 10745 10744 10744 10746 10747 10747 10748 10749 10750 10749 10752 10757 10759 10760 10762 10762 10764 10767 10767 10766 10768 10768 10768 10768 10769 10770 10772 10773 10773 10772 10772 10774 10776 10776 10777 10778 10780 10781 10781 10782 10784 10785 10786 10788 10790 10791 10791 10793 10794 10793 10792 10792 10793 10793 10793 10793 10793 10793 10792 10790 10788 10786 10785
10757 10754 10751 10749 10747 10745 10744 10743 10741 10739 10737 10736 10734 10732 10730 10729 10728 10727 10727 10726 10725 10727 10729 10731 10733 10734 10734 10735 10736 10736 10737 10738 10739 10739 10742 10745 10747 10749 10752 10753 10754 10757 10759 10759 10760 10760 10761 10761 10761 10762 10763 10765 10767 10767 10767 10767 10769 10770 10771 10772 10774 10776 10776 10777 10778 10780 10782 10784 10786 10787 10788 10790 10789 10788 10787 10787 10788 10789 10789 10789 10790 10789 10789 10788 10786 10784 10783
10748 10746 10743 10740 10738 10736 10734 10732 10730 10728 10726 10724 10723 10721 10719 10718 10716 10714 10714 10713 10711 10714 10716 10718 10720 10722 10723 10725 10726 10726 10727 10727 10729 10729 10731 10733 10735 10738 10742 10743 10745 10747 10750 10751 10752 10752 10753 10754 10754 10754 10755 10756 10759 10761 10762 10762 10762 10763 10763 10764 10766 10769 10771 10771 10772 10774 10777 10779 10780 10783 10785 10786 10784 10782 10783 10783 10784 10784 10784 10785 10786 10786 10785 10785 10783 10782 10781
10740 10737 10734 10731 10729 10727 10724 10722 10719 10716 10714 10712 10710 10709 10707 10706 10704 10702 10702 10700 10698 10700 10703 10705 10707 10709 10711 10713 10715 10716 10716 10718 10719 10720 10720 10720 10723 10727 10732 10733 10734 10737 10739 10741 10743 10744 10745 10746 10747 10747 10748 10749 10751 10754 10756 10756 10755 10755 10755 10757 10758 10760 10762 10765 10766 10768 10771 10773 10775 10778 10781 10781 10779 10778 10778 10779 10779 10779 10779 10780 10781 10781 10781 10781 10780 10779 10778
10732 10728 10726 10722 10720 10717 10714 10711 10708 10705 10702 10699 10698 10696 10694 10693 10692 10690 10689 10688 10686 10687 10689 10692 10694 10696 10698 10700 10703 10705 10706 10707 10708 10709 10709 10709 10710 10716 10721 10723 10722 10725 10729 10731 10732 10734 10736 10737 10738 10740 10741 10742 10744 10746 10749 10749 10748 10748 10749 10749 10751 10752 10754 10757 10760 10762 10765 10767 10770 10773 10775 10775 10774 10773 10773 10774 10774 10774 10774 10775 10776 10777 10777 10777 10776 10776 10775
10723 10720 10717 10713 10710 10707 10703 10700 10697 10693 10690 10687 10685 10682 10680 10680 10679 10677 10676 10675 10674 10674 10676 10678 10680 10684 10686 10688 10691 10693 10695 10696 10697 10698 10698 10698 10699 10704 10710 10713 10712 10713 10717 10720 10722 10724 10726 10727 10730 10732 10734 10736 10736 10738 10741 10741 10742 10743 10743 10742 10743 10745 10746 10749 10753 10756 10759 10762 10764 10767 10769 10770 10769 10767 10768 10769 10769 10769 10770 10770 10771 10772 10773 10772 10771 10772 10772
10715 10711 10707 10704 10700 10696 10692 10689 10685 10681 10678 10675 10672 10670 10667 10666 10665 10664 10663 10662 10661 10662 10664 10665 10666 10669 10673 10676 10678 10680 10681 10684 10686 10687 10687 10688 10689 10692 10698 10702 10702 10703 10706 10709 10711 10714 10715 10718 10721 10724 10726 10727 10727 10730 10733 10734 10735 10737 10736 10735 10736 10738 10740 10743 10746 10749 10753 10756 10758 10760 10762 10764 10763 10761 10762 10764 10765 10765 10766 10766 10766 10767 10767 10767 10767 10768 10768
10706 10702 10698 10694 10690 10686 10682 10678 10674 10670 10666 10663 10660 10657 10655 10654 10652 10652 10651 10650 10649 10649 10652 10653 10652 10654 10657 10661 10665 10667 10668 10670 10674 10676 10676 10678 10679 10681 10685 10690 10692 10693 10695 10698 10700 10703 10705 10708 10711 10714 10716 10717 10718 10721 10725 10727 10728 10730 10730 10729 10728 10730 10733 10736 10739 10743 10746 10749 10752 10754 10756 10757 10757 10756 10757 10758 10759 10760 10762 10762 10762 10762 10761 10761 10763 10764 10764
10697 10693 10689 10685 10681 10676 10672 10668 10664 10659 10656 10653 10650 10647 10645 10644 10642 10641 10640 10639 10638 10639 10641 10640 10639 10640 10643 10646 10651 10655 10656 10658 10661 10665 10666 10667 10669 10671 10674 10677 10680 10682 10685 10688 10689 10692 10695 10698 10701 10705 10707 10708 10709 10712 10716 10718 10720 10722 10723 10722 10722 10723 10726 10728 10732 10735 10738 10741 10745 10748 10749 10750 10750 10751 10752 10753 10754 10755 10757 10757 10757 10756 10755 10757 10758 10759 10760
10688 10684 10680 10676 10672 10667 10663 10658 10654 10650 10646 10644 10641 10639 10637 10635 10634 10633 10631 10630 10628 10630 10631 10630 10628 10629 10631 10633 10636 10641 10644 10646 10648 10652 10655 10656 10659 10661 10663 10665 10666 10671 10676 10677 10678 10681 10685 10687 10690 10694 10697 10699 10701 10704 10707 10709 10711 10713 10714 10715 10716 10716 10718 10721 10724 10727 10731 10734 10737 10741 10743 10744 10744 10745 10747 10748 10748 10749 10750 10750 10751 10751 10751 10752 10754 10754 10755
10680 10676 10672 10668 10663 10658 10654 10650 10646 10642 10639 10636 10634 10632 10629 10628 10627 10625 10624 10622 10621 10622 10623 10622 10619 10620 10621 10622 10624 10628 10632 10634 10637 10640 10642 10644 10646 10649 10652 10654 10656 10660 10665 10666 10666 10670 10675 10677 10679 10683 10686 10689 10692 10696 10698 10700 10702 10704 10706 10707 10709 10710 10711 10714 10717 10720 10723 10727 10730 10734 10737 10738 10738 10738 10740 10742 10742 10742 10743 10744 10745 10745 10746 10747 10749 10749 10749
10673 10669 10665 10660 10656 10650 10646 10642 10638 10635 10632 10630 10627 10625 10622 10621 10620 10618 10616 10615 10614 10614 10615 10614 10612 10612 10612 10612 10614 10616 10619 10622 10625 10627 10628 10630 10634 10638 10641 10644 10647 10649 10654 10657 10657 10660 10665 10668 10669 10672 10675 10678 10683 10687 10689 10691 10693 10696 10698 10699 10701 10704 10705 10708 10710 10712 10715 10719 10723 10727 10729 10730 10730 10732 10733 10735 10735 10735 10737 10738 10739 10739 10741 10742 10743 10744 10744
10665 10661 10657 10653 10648 10643 10639 10635 10631 10628 10626 10623 10621 10618 10616 10614 10612 10611 10609 10608 10607 10608 10608 10606 10605 10604 10604 10604 10605 10606 10609 10613 10615 10617 10618 10620 10625 10628 10630 10634 10637 10639 10643 10648 10650 10652 10656 10659 10661 10663 10665 10669 10674 10678 10680 10682 10685 10688 10690 10690 10693 10697 10699 10701 10703 10706 10709 10713 10716 10718 10721 10723 10724 10726 10727 10727 10728 10729 10731 10733 10734 10734 10735 10737 10737 10738 10739
10658 10654 10650 10645 10641 10636 10632 10629 10625 10622 10620 10617 10615 10612 10610 10607 10605 10604 10603 10602 10601 10601 10601 10600 10599 10598 10597 10597 10598 10599 10601 10604 10606 10607 10608 10610 10613 10616 10618 10623 10628 10631 10634 10638 10641 10644 10646 10649 10652 10655 10658 10660 10664 10668 10671 10674 10676 10679 10681 10682 10685 10689 10692 10694 10696 10699 10703 10706 10708 10711 10714 10716 10718 10720 10721 10721 10721 10723 10726 10729 10729 10728 10729 10731 10732 10733 10735
10651 10647 10643 10639 10634 10630 10626 10623 10620 10617 10614 10611 10609 10606 10604 10602 10599 10598 10596 10595 10594 10594 10594 10593 10592 10592 10591 10591 10591 10592 10593 10595 10596 10597 10598 10600 10603 10606 10610 10615 10620 10623 10625 10628 10631 10634 10636 10639 10643 10646 10649 10652 10655 10659 10662 10664 10666 10669 10672 10674 10677 10680 10684 10687 10689 10692 10696 10698 10700 10703 10706 10708 10710 10713 10715 10715 10715 10717 10720 10723 10723 10722 10724 10726 10727 10728 10730
10643 10640 10636 10632 10628 10623 10620 10617 10614 10611 10609 10606 10604 10601 10598 10596 10594 10592 10590 10589 10588 10588 10587 10586 10586 10586 10586 10585 10584 10585 10586 10587 10588 10589 10589 10591 10594 10597 10601 10606 10610 10612 10614 10617 10621 10624 10626 10629 10633 10636 10640 10643 10646 10648 10649 10652 10656 10659 10662 10665 10668 10672 10675 10678 10680 10684 10688 10690 10693 10696 10698 10700 10702 10706 10709 10710 10710 10710 10714 10716 10716 10717 10719 10720 10721 10723 10725
10637 10633 10629 10626 10621 10618 10615 10612 10609 10606 10604 10601 10599 10596 10593 10591 10588 10586 10585 10583 10582 10582 10581 10580 10579 10579 10580 10579 10578 10578 10579 10580 10581 10581 10581 10583 10586 10589 10593 10596 10598 10601 10604 10607 10610 10613 10616 10619 10622 10626 10630 10633 10635 10637 10639 10642 10647 10650 10652 10655 10659 10663 10666 10670 10673 10676 10680 10683 10686 10689 10691 10692 10696 10699 10702 10704 10704 10704 10706 10708 10709 10711 10713 10715 10716 10718 10720
10630 10626 10623 10619 10615 10612 10609 10607 10604 10601 10599 10596 10594 10591 10588 10585 10583 10581 10579 10578 10577 10576 10575 10574 10573 10573 10573 10572 10571 10571 10572 10573 10574 10574 10574 10575 10577 10580 10584 10586 10587 10591 10594 10597 10600 10603 10606 10609 10612 10615 10619 10623 10625 10628 10631 10634 10638 10642 10644 10646 10649 10654 10658 10662 10665 10669 10672 10675 10679 10682 10684 10686 10690 10693 10695 10697 10698 10699 10700 10702 10702 10704 10707 10709 10710 10712 10715
10623 10620 10617 10613 10610 10606 10604 10602 10599 10596 10594 10591 10589 10586 10583 10580 10578 10576 10574 10572 10571 10571 10569 10568 10567 10567 10566 10565 10564 10564 10564 10565 10566 10566 10567 10567 10568 10570 10574 10577 10579 10581 10584 10587 10590 10593 10595 10599 10602 10605 10609 10613 10616 10619 10623 10626 10629 10634 10635 10635 10638 10645 10650 10653 10657 10661 10664 10667 10671 10675 10677 10680 10683 10684 10687 10689 10691 10693 10695 10696 10697 10699 10701 10703 10705 10707 10710
10616 10613 10610 10607 10604 10601 10599 10597 10595 10592 10589 10586 10583 10581 10578 10576 10573 10571 10569 10567 10566 10565 10564 10562 10561 10560 10559 10558 10557 10556 10556 10557 10557 10558 10559 10559 10560 10561 10564 10567 10570 10572 10574 10577 10579 10582 10585 10588 10591 10595 10600 10604 10607 10611 10616 10618 10621 10625 10624 10622 10627 10636 10642 10645 10649 10652 10655 10659 10664 10668 10671 10674 10674 10676 10679 10682 10685 10687 10689 10690 10692 10694 10696 10698 10700 10702 10704
10610 10607 10604 10602 10599 10596 10594 10593 10590 10587 10584 10582 10579 10576 10574 10571 10568 10566 10564 10562 10560 10559 10558 10556 10555 10553 10552 10551 10549 10548 10548 10548 10549 10550 10550 10551 10552 10553 10555 10558 10560 10563 10565 10566 10569 10572 10576 10578 10582 10586 10591 10595 10599 10604 10608 10610 10613 10614 10611 10611 10619 10629 10634 10637 10641 10644 10648 10652 10657 10660 10664 10667 10668 10670 10673 10675 10678 10680 10682 10684 10686 10688 10690 10693 10695 10697 10699
10603 10600 10598 10596 10594 10591 10590 10588 10586 10583 10580 10577 10574 10571 10569 10566 10564 10561 10559 10557 10555 10554 10552 10550 10548 10547 10545 10543 10542 10540 10540 10540 10540 10541 10542 10542 10543 10544 10546 10548 10550 10553 10555 10557 10560 10563 10567 10570 10574 10578 10583 10588 10593 10596 10599 10602 10603 10602 10600 10604 10614 10622 10627 10630 10634 10637 10641 10645 10649 10653 10657 10660 10662 10665 10667 10668 10670 10672 10675 10678 10680 10682 10684 10687 10689 10690 10692
10597 10594 10592 10591 10589 10587 10585 10583 10581 10579 10576 10572 10569 10567 10565 10562 10560 10557 10555 10553 10550 10548 10546 10544 10542 10540 10538 10536 10534 10533 10533 10532 10532 10533 10534 10534 10535 10536 10537 10539 10541 10543 10545 10548 10551 10554 10558 10562 10567 10571 10576 10582 10586 10588 10590 10592 10592 10590 10592 10601 10610 10616 10619 10623 10626 10630 10633 10638 10642 10646 10649 10652 10655 10659 10662 10663 10663 10666 10669 10671 10673 10676 10678 10680 10682 10685 10687
10591 10589 10587 10586 10584 10583 10581 10579 10577 10575 10572 10568 10565 10562 10560 10558 10556 10553 10551 10549 10546 10543 10541 10539 10537 10534 10532 10530 10529 10528 10527 10527 10526 10527 10527 10528 10528 10529 10530 10531 10532 10534 10536 10539 10542 10545 10550 10554 10559 10563 10569 10574 10577 10579 10580 10580 10580 10582 10590 10600 10606 10610 10613 10616 10620 10623 10626 10631 10636 10640 10643 10645 10647 10651 10656 10657 10658 10662 10666 10668 10669 10671 10674 10676 10678 10681 10683
10586 10584 10582 10581 10580 10578 10577 10575 10572 10570 10568 10564 10561 10558 10556 10554 10552 10549 10547 10544 10542 10539 10536 10534 10532 10529 10527 10526 10525 10524 10523 10523 10522 10522 10523 10523 10523 10524 10524 10524 10525 10526 10528 10530 10533 10537 10541 10546 10550 10555 10561 10565 10567 10568 10569 10571 10575 10582 10591 10598 10601 10604 10607 10610 10614 10617 10621 10625 10629 10633 10636 10638 10640 10643 10648 10651 10654 10658 10663 10664 10664 10666 10669 10671 10674 10677 10678
10580 10579 10577 10576 10575 10574 10572 10570 10568 10566 10563 10560 10557 10554 10552 10550 10548 10545 10543 10540 10538 10535 10532 10530 10527 10525 10524 10523 10522 10521 10521 10521 10520 10520 10520 10520 10520 10519 10519 10519 10519 10520 10521 10523 10526 10529 10532 10536 10541 10546 10551 10554 10556 10559 10563 10569 10576 10583 10589 10593 10596 10598 10601 10605 10609 10612 10615 10618 10621 10625 10629 10632 10633 10636 10640 10644 10647 10651 10654 10655 10656 10659 10663 10666 10669 10671 10672
10575 10574 10572 10571 10571 10570 10568 10566 10564 10562 10559 10556 10553 10551 10548 10546 10544 10542 10539 10536 10534 10531 10529 10526 10523 10522 10521 10521 10520 10520 10520 10519 10519 10518 10518 10517 10517 10517 10516 10515 10515 10515 10516 10518 10520 10522 10525 10529 10534 10539 10543 10547 10551 10557 10563 10570 10575 10579 10584 10587 10589 10592 10596 10600 10603 10605 10608 10611 10614 10618 10621 10624 10627 10630 10633 10635 10639 10643 10646 10648 10650 10653 10657 10661 10664 10666 10667
10570 10569 10568 10567 10566 10566 10564 10562 10560 10558 10555 10552 10550 10547 10545 10543 10540 10538 10536 10533 10530 10528 10525 10523 10521 10519 10519 10519 10519 10519 10518 10517 10516 10516 10516 10515 10515 10515 10514 10513 10513 10512 10513 10514 10516 10518 10521 10524 10529 10533 10537 10543 10550 10556 10562 10566 10569 10572 10576 10579 10581 10585 10589 10592 10595 10598 10601 10604 10607 10610 10613 10616 10619 10622 10625 10628 10631 10636 10640 10642 10644 10647 10651 10654 10657 10660 10662
10565 10564 10563 10562 10562 10561 10560 10558 10556 10554 10551 10548 10546 10544 10541 10539 10537 10535 10532 10530 10527 10524 10522 10520 10518 10517 10517 10517 10517 10517 10517 10516 10515 10515 10515 10514 10514 10514 10513 10513 10512 10511 10512 10512 10514 10515 10518 10521 10525 10529 10535 10542 10548 10552 10556 10559 10562 10566 10569 10572 10576 10579 10583 10585 10588 10592 10595 10598 10600 10603 10606 10608 10611 10615 10618 10621 10624 10629 10633 10637 10639 10642 10645 10648 10651 10655 10658
10560 10559 10559 10558 10558 10557 10556 10554 10552 10550 10547 10545 10542 10540 10538 10536 10534 10532 10529 10526 10524 10521 10519 10517 10516 10516 10516 10515 10515 10515 10515 10514 10514 10514 10514 10514 10514 10514 10514 10513 10512 10512 10512 10513 10514 10515 10517 10520 10524 10528 10533 10539 10544 10547 10551 10555 10559 10562 10566 10569 10572 10575 10578 10581 10584 10587 10589 10591 10594 10597 10600 10603 10605 10608 10611 10614 10619 10623 10627 10630 10634 10638 10641 10644 10648 10651 10654
10556 10555 10554 10554 10553 10553 10551 10550 10548 10546 10544 10541 10539 10537 10534 10532 10531 10528 10526 10523 10521 10519 10517 10515 10514 10514 10514 10514 10514 10514 10513 10513 10513 10513 10514 10514 10514 10514 10514 10514 10513 10513 10514 10514 10515 10516 10518 10521 10524 10528 10532 10537 10541 10546 10549 10553 10556 10559 10562 10565 10568 10571 10574 10577 10580 10583 10585 10587 10590 10593 10596 10598 10600 10602 10605 10609 10613 10618 10622 10625 10629 10633 10637 10640 10644 10647 10650
10551 10550 10550 10550 10549 10549 10547 10546 10544 10542 10540 10537 10535 10533 10531 10529 10527 10525 10523 10521 10518 10516 10514 10513 10512 10512 10513 10513 10513 10513 10512 10512 10513 10513 10514 10514 10515 10515 10514 10514 10515 10515 10516 10516 10517 10518 10520 10523 10526 10529 10533 10537 10541 10545 10548 10550 10553 10556 10559 10562 10565 10568 10570 10573 10576 10579 10581 10584 10587 10589 10591 10593 10596 10598 10601 10605 10609 10613 10618 10621 10624 10628 10632 10636 10640 10643 10646
10547 10546 10546 10546 10545 10544 10543 10542 10540 10538 10536 10534 10532 10530 10528 10526 10524 10522 10520 10518 10515 10513 10512 10511 10510 10511 10511 10511 10512 10512 10512 10512 10512 10513 10513 10514 10515 10515 10515 10515 10516 10517 10517 10518 10519 10521 10522 10525 10528 10531 10535 10538 10541 10544 10546 10549 10551 10554 10556 10558 10561 10563 10566 10569 10573 10576 10578 10581 10583 10585 10587 10590 10593 10596 10599 10603 10607 10612 10616 10620 10622 10625 10629 10633 10636 10639 10641
10542 10542 10541 10541 10541 10540 10539 10538 10536 10534 10532 10530 10528 10526 10525 10523 10521 10519 10517 10515 10513 10511 10509 10509 10508 10509 10509 10510 10511 10511 10511 10512 10512 10512 10513 10514 10515 10515 10516 10516 10517 10518 10519 10520 10521 10522 10524 10527 10530 10533 10536 10539 10542 10544 10546 10548 10550 10552 10553 10555 10557 10559 10562 10565 10569 10572 10575 10578 10580 10582 10585 10588 10591 10595 10598 10602 10606 10611 10615 10618 10620 10623 10626 10629 10632 10634 10636
10538 10537 10537 10537 10537 10536 10535 10534 10532 10531 10529 10527 10525 10523 10522 10520 10518 10516 10514 10512 10510 10508 10507 10507 10506 10507 10508 10509 10510 10510 10511 10511 10512 10512 10513 10514 10515 10516 10517 10518 10519 10520 10521 10522 10524 10525 10527 10529 10532 10534 10537 10540 10543 10545 10547 10549 10550 10552 10553 10554 10556 10557 10560 10563 10567 10570 10572 10575 10578 10581 10584 10587 10591 10594 10598 10601 10605 10609 10612 10614 10617 10619 10622 10624 10627 10629 10632
10533 10533 10533 10533 10532 10532 10531 10530 10528 10527 10525 10523 10521 10520 10519 10517 10515 10513 10511 10509 10507 10506 10505 10505 10504 10505 10506 10507 10508 10509 10510 10510 10511 10512 10512 10514 10515 10516 10517 10518 10520 10521 10522 10524 10526 10528 10529 10531 10534 10536 10538 10541 10543 10545 10547 10549 10550 10552 10554 10556 10557 10558 10560 10562 10565 10568 10571 10573 10577 10580 10583 10586 10589 10593 10596 10599 10602 10605 10608 10611 10613 10615 10617 10619 10622 10626 10629
10529 10529 10529 10528 10528 10527 10527 10525 10524 10523 10522 10520 10518 10517 10516 10514 10512 10510 10508 10507 10505 10503 10502 10502 10502 10503 10504 10506 10507 10508 10508 10509 10510 10511 10512 10513 10515 10516 10517 10519 10520 10522 10523 10525 10527 10529 10531 10533 10535 10537 10539 10542 10543 10545 10546 10548 10550 10552 10554 10556 10558 10559 10560 10562 10565 10567 10570 10572 10575 10578 10582 10585 10587 10590 10593 10596 10599 10601 10604 10606 10608 10610 10612 10615 10619 10623 10626
10525 10525 10524 10524 10524 10523 10522 10521 10520 10519 10518 10516 10515 10514 10513 10511 10509 10507 10506 10505 10503 10501 10500 10500 10500 10501 10502 10504 10505 10506 10507 10508 10509 10510 10512 10513 10515 10516 10518 10519 10521 10522 10524 10526 10528 10530 10532 10534 10536 10538 10539 10541 10543 10545 10546 10548 10550 10551 10553 10555 10557 10559 10560 10562 10563 10565 10568 10570 10573 10576 10579 10581 10584 10587 10590 10592 10595 10598 10600 10602 10604 10606 10609 10612 10616 10619 10622
10520 10520 10520 10520 10520 10519 10518 10517 10517 10516 10514 10513 10512 10511 10509 10508 10507 10505 10504 10502 10501 10499 10498 10498 10498 10499 10501 10502 10503 10504 10505 10507 10508 10509 10511 10512 10514 10516 10517 10519 10521 10522 10524 10526 10529 10531 10533 10535 10537 10538 10539 10540 10542 10544 10545 10547 10549 10551 10552 10554 10556 10558 10559 10560 10562 10563 10565 10568 10570 10573 10575 10578 10580 10583 10586 10589 10592 10594 10597 10599 10602 10604 10607 10610 10613 10616 10619
10516 10516 10516 10516 10515 10515 10514 10513 10512 10512 10510 10509 10509 10508 10506 10505 10504 10502 10501 10500 10498 10497 10496 10496 10496 10497 10499 10500 10502 10503 10504 10505 10506 10508 10510 10512 10513 10515 10517 10519 10520 10522 10524 10526 10528 10530 10533 10535 10536 10538 10539 10540 10541 10543 10544 10546 10548 10550 10552 10554 10556 10557 10558 10559 10560 10561 10563 10565 10567 10570 10572 10575 10577 10580 10582 10585 10588 10591 10594 10596 10598 10601 10603 10606 10609 10612 10614
10512 10512 10512 10511 10511 10511 10510 10509 10508 10507 10507 10506 10505 10505 10504 10502 10501 10500 10499 10497 10496 10495 10494 10494 10494 10495 10497 10498 10500 10501 10503 10504 10505 10507 10509 10511 10513 10514 10516 10518 10519 10521 10524 10526 10528 10530 10532 10533 10535 10536 10538 10539 10541 10542 10543 10545 10546 10548 10550 10553 10555 10556 10556 10557 10559 10560 10562 10563 10565 10567 10569 10572 10574 10577 10579 10582 10584 10587 10590 10592 10595 10597 10600 10602 10605 10607 10610
10508 10508 10507 10507 10507 10507 10506 10505 10504 10503 10503 10502 10502 10501 10500 10500 10498 10497 10496 10495 10494 10493 10492 10492 10492 10493 10494 10496 10498 10499 10501 10502 10504 10506 10508 10510 10511 10513 10515 10517 10519 10521 10524 10526 10527 10529 10531 10532 10534 10535 10537 10538 10539 10540 10542 10544 10545 10547 10548 10551 10553 10553 10554 10556 10558 10559 10561 10562 10564 10566 10568 10570 10572 10574 10577 10579 10582 10585 10587 10590 10592 10594 10597 10599 10601 10604 10606
10504 10503 10503 10503 10503 10503 10502 10501 10500 10500 10499 10499 10498 10498 10497 10497 10495 10494 10493 10493 10492 10490 10490 10490 10490 10491 10492 10493 10495 10497 10499 10500 10502 10504 10506 10508 10510 10512 10514 10516 10518 10521 10523 10525 10527 10528 10530 10531 10533 10534 10536 10537 10538 10539 10541 10543 10545 10546 10547 10549 10550 10552 10553 10555 10556 10558 10560 10562 10563 10565 10567 10569 10571 10573 10576 10578 10580 10582 10585 10587 10589 10591 10594 10596 10598 10601 10603